[ ตารางข้อมูล ] [ Min-Max ] [ วันนี้4 ] [ วันนี้2 ] [ เทียบ3วัน A ] [ เทียบ4วัน B ]   

วันนี้2   [ ◀ ช่วงเก่ากว่า ] [ ช่วงที่ 204 ] [ ช่วงใหม่กว่า ▶ ] [ ล่าสุด ]    [ 3 ชั่วโมง ] [ 6 ชั่วโมง ] [ 12 ชั่วโมง ] [ 24 ชั่วโมง ]   วันนี้2

อุณภูมิตู้ Knockdown4529  ราย 3 ชั่วโมง  ที่วัดได้ ในช่วงวันเวลา 09/04/2026 (14:40) ถึง 09/04/2026 (17:40) 
ความชื้นในตู้ Knockdown4529  ราย 3 ชั่วโมง  ที่วัดได้ ในช่วงวันเวลา 09/04/2026 (14:40) ถึง 09/04/2026 (17:40) 

 
DS18B20SHTC3 
IDDate d/m/Y & Timedata1
สูง
data2
ต่ำ
data3
นอก
temp
pcb
hum
pcb
Time
 10305  09/04/2026 17:40:28  29.7  29.8  27.0  29.8  70.1  17:40 
 10304  09/04/2026 17:35:46  29.8  29.8  26.9  29.7  70.1  17:35 
 10303  09/04/2026 17:31:05  29.8  29.9  26.7  29.7  70.0  17:31 
 10302  09/04/2026 17:26:23  29.8  29.9  27.0  29.7  70.1  17:26 
 10301  09/04/2026 17:21:40  29.8  29.9  26.9  29.9  70.1  17:21 
 10300  09/04/2026 17:16:58  29.9  30.0  26.7  29.8  70.0  17:16 
 10299  09/04/2026 17:12:16  29.9  30.0  26.7  30.0  70.0  17:12 
 10298  09/04/2026 17:07:35  29.9  30.1  26.7  30.0  70.1  17:07 
 10297  09/04/2026 17:02:52  30.0  30.1  26.9  29.8  69.8  17:02 
 10296  09/04/2026 16:58:10  30.1  30.1  27.2  30.2  70.0  16:58 
 10295  09/04/2026 16:53:29  30.1  30.2  27.0  30.1  69.9  16:53 
 10294  09/04/2026 16:48:47  30.2  30.2  26.9  30.1  70.0  16:48 
 10293  09/04/2026 16:44:06  30.2  30.2  27.0  30.2  69.9  16:44 
 10292  09/04/2026 16:39:24  30.2  30.3  27.4  30.3  70.0  16:39 
 10291  09/04/2026 16:34:42  30.3  30.4  27.4  30.2  69.9  16:34 
 10290  09/04/2026 16:30:01  30.4  30.4  27.5  30.4  69.9  16:30 
 10289  09/04/2026 16:25:17  30.4  30.4  27.4  30.2  69.8  16:25 
 10288  09/04/2026 16:20:35  30.5  30.5  27.2  30.3  69.7  16:20 
 10287  09/04/2026 16:15:53  30.5  30.6  27.5  30.4  69.7  16:15 
 10286  09/04/2026 16:11:11  30.6  30.6  27.4  30.5  69.9  16:11 
 10285  09/04/2026 16:06:29  30.6  30.6  27.2  30.6  69.8  16:06 
 10284  09/04/2026 15:31:42  31.2  31.1  27.0  31.1  69.1  15:31 
 10283  09/04/2026 15:27:00  31.2  31.1  26.9  31.1  69.0  15:27 
 10282  09/04/2026 15:22:19  31.3  31.2  26.9  31.2  69.0  15:22 

Data every 5 minute.


ใช้เวลาประมวลผล 0.00323 วินาที